Location: ??
(36.7391°N, 127.5151°E)
Time: 12:39:44
(UTC+00:00)

STARLINK-1097 - Pass Details

Date: 07 June 2020
Orbit: 549 x 550 km, 53.0° (Epoch: 14 July)

Event Time Altitude Azimuth Distance (km) Brightness Sun altitude
Rises 11:24:43 0° 317° (NW) 2,721 9.2 -7.2°
Reaches altitude 10° 11:27:01 10° 324° (NW) 1,825 7.7 -7.6°
Maximum altitude 11:31:01 45° 38° (NE) 753 4.3 -8.2°
Enters shadow 11:34:52 11° 111° (ESE) 1,773 5.6 -8.8°
